Iron Mountain, MI

11:43 AM CDT on October 18, 2017 (GMT -0500)
Ford

Weather History for KIMT - March, 2013

Change the Weather History Date:

Wednesday, March 27, 2013

  Actual Average Record
Temperature  
Mean Temperature 30 °F -  
Max Temperature 43 °F 44 °F 74 °F (1946)
Min Temperature 17 °F 22 °F -10 °F (1965)
Degree Days  
Heating Degree Days 35    
Moisture  
Dew Point 19 °F    
Average Humidity 64    
Maximum Humidity 92    
Minimum Humidity 37    
Precipitation  
Precipitation 0.00 in - - ()
Sea Level Pressure  
Sea Level Pressure 30.25 in    
Wind  
Wind Speed 7 mph (NW)    
Max Wind Speed 18 mph    
Max Gust Speed 25 mph    
Visibility 10 miles    
Events      
Averages and records for this station are not official NWS values.
T = Trace of Precipitation, MM = Missing Value Source: NWS Daily Summary

Daily Weather History Graph

Daily Weather History Graph

Search for Another Location

Airport or City:

Trip Planner

Search our weather history database for the weather conditions in past years. The results will help you decide how hot, cold, wet, or windy it might be!

Date:

Astronomy

Mar. 27, 2013 Rise Set
Actual Time 6:41 AM CDT 7:14 PM CDT
Civil Twilight 6:11 AM CDT 7:44 PM CDT
Nautical Twilight 5:36 AM CDT 8:20 PM CDT
Astronomical Twilight 4:59 AM CDT 8:57 PM CDT
Moon 8:02 PM CDT (3/27) 6:29 AM CDT (3/27)
Length of Visible Light 13h 32m
Length of Day
12h 33m
Full, 100% of the Moon is Illuminated
Mar 27
Full
Apr 2
Last Quarter
Apr 10
New
Apr 18
First Quarter
Apr 25
Full

Hourly Weather History & Observations

Time (CDT) Temp. Windchill Dew Point Humidity Pressure Visibility Wind Dir Wind Speed Gust Speed Precip Events Conditions
12:54 AM 27.0 °F 20.5 °F 21.0 °F 78% 30.23 in 10.0 mi WNW 5.8 mph - N/A   Clear
1:54 AM 26.1 °F 20.5 °F 19.9 °F 78% 30.24 in 10.0 mi WNW 4.6 mph - N/A   Clear
2:54 AM 21.0 °F 14.6 °F 18.0 °F 88% 30.23 in 10.0 mi WNW 4.6 mph - N/A   Clear
3:54 AM 21.0 °F 14.6 °F 18.0 °F 88% 30.23 in 10.0 mi NW 4.6 mph - N/A   Clear
4:54 AM 21.0 °F 14.6 °F 17.1 °F 85% 30.24 in 10.0 mi NW 4.6 mph - N/A   Clear
5:54 AM 19.9 °F - 16.0 °F 85% 30.25 in 10.0 mi Calm Calm - N/A   Clear
6:54 AM 17.1 °F - 15.1 °F 92% 30.26 in 10.0 mi Calm Calm - N/A   Clear
7:54 AM 19.0 °F - 17.1 °F 92% 30.27 in 10.0 mi Calm Calm - N/A   Clear
8:54 AM 30.9 °F 23.5 °F 21.0 °F 67% 30.26 in 10.0 mi NW 8.1 mph - N/A   Clear
9:54 AM 35.1 °F 25.5 °F 19.9 °F 54% 30.26 in 10.0 mi NNW 15.0 mph - N/A   Clear
10:54 AM 37.0 °F 27.0 °F 19.9 °F 50% 30.26 in 10.0 mi NNW 18.4 mph 25.3 mph N/A   Clear
11:54 AM 37.9 °F 28.9 °F 19.9 °F 48% 30.26 in 10.0 mi NNW 16.1 mph - N/A   Clear
12:54 PM 39.0 °F 31.4 °F 18.0 °F 43% 30.26 in 10.0 mi NNW 12.7 mph 23.0 mph N/A   Clear
1:54 PM 42.1 °F 36.6 °F 18.0 °F 38% 30.25 in 10.0 mi NNW 9.2 mph - N/A   Clear
2:54 PM 41.0 °F 36.4 °F 19.9 °F 43% 30.24 in 10.0 mi NNW 6.9 mph - N/A   Clear
3:54 PM 43.0 °F 36.8 °F 18.0 °F 37% 30.24 in 10.0 mi NW 11.5 mph 18.4 mph N/A   Clear
4:54 PM 42.1 °F 35.7 °F 19.9 °F 41% 30.23 in 10.0 mi NNW 11.5 mph 17.3 mph N/A   Clear
5:54 PM 42.1 °F 35.7 °F 19.9 °F 41% 30.25 in 10.0 mi NNW 11.5 mph - N/A   Clear
6:54 PM 37.9 °F 32.1 °F 21.9 °F 53% 30.26 in 10.0 mi North 8.1 mph - N/A   Clear
7:54 PM 33.1 °F 26.1 °F 21.0 °F 61% 30.27 in 10.0 mi North 8.1 mph - N/A   Clear
8:54 PM 33.1 °F 26.9 °F 18.0 °F 54% 30.27 in 10.0 mi NW 6.9 mph - N/A   Clear
9:54 PM 27.0 °F 21.6 °F 19.0 °F 72% 30.28 in 10.0 mi NNW 4.6 mph - N/A   Clear
10:54 PM 26.1 °F 20.5 °F 17.1 °F 69% 30.28 in 10.0 mi NW 4.6 mph - N/A   Clear
11:54 PM 27.0 °F - 18.0 °F 69% 30.28 in 10.0 mi Calm Calm - N/A   Clear